Wetterdaten: Sonntag, 06.10.2013
Datum Zeit Temperatur Luftfeuchte Luftdruck Regen Wind Richtung Richtung Taupunkt Windchill Windben
06.10.2013 00:00 9,8 C 96 % 1021,1 hPa 0,0 l/m 1,9 km/h (1 Bft) O-NO 67 9,2 C 10,0 C 3,1 km/h (1 Bft)
06.10.2013 00:05 9,9 C 96 % 1021,1 hPa 0,0 l/m 1,8 km/h (1 Bft) NO 45 9,3 C 10,0 C 0,0 km/h (0 Bft)
06.10.2013 00:10 9,9 C 96 % 1021,1 hPa 0,0 l/m 0,8 km/h (0 Bft) NO 45 9,3 C 10,0 C 0,0 km/h (0 Bft)
06.10.2013 00:15 9,7 C 96 % 1021,1 hPa 0,0 l/m 0,2 km/h (0 Bft) NO 45 9,1 C 10,0 C 4,8 km/h (1 Bft)
06.10.2013 00:20 9,9 C 96 % 1021,1 hPa 0,0 l/m 0,5 km/h (0 Bft) SO 135 9,3 C 10,0 C 1,8 km/h (1 Bft)
06.10.2013 00:25 10,0 C 96 % 1021,1 hPa 0,0 l/m 0,8 km/h (0 Bft) S-SW 202 9,4 C 10,0 C 2,7 km/h (1 Bft)
06.10.2013 00:30 10,0 C 96 % 1021,1 hPa 0,0 l/m 1,9 km/h (1 Bft) SO 135 9,4 C 10,1 C 2,4 km/h (1 Bft)
06.10.2013 00:35 9,8 C 96 % 1021,1 hPa 0,0 l/m 2,1 km/h (1 Bft) O-SO 112 9,2 C 10,2 C 11,1 km/h (2 Bft)
06.10.2013 00:40 9,7 C 96 % 1021,1 hPa 0,0 l/m 0,8 km/h (0 Bft) N-NO 22 9,1 C 10,2 C 0,0 km/h (0 Bft)
06.10.2013 00:45 9,7 C 96 % 1021,1 hPa 0,0 l/m 1,0 km/h (0 Bft) S-SO 157 9,1 C 10,2 C 3,2 km/h (1 Bft)
06.10.2013 00:50 9,8 C 96 % 1021,1 hPa 0,0 l/m 0,5 km/h (0 Bft) SO 135 9,2 C 10,3 C 0,0 km/h (0 Bft)
06.10.2013 00:55 9,8 C 96 % 1021,1 hPa 0,0 l/m 0,3 km/h (0 Bft) NO 45 9,2 C 10,3 C 0,0 km/h (0 Bft)
06.10.2013 01:00 9,8 C 96 % 1021,1 hPa 0,0 l/m 0,2 km/h (0 Bft) S-SW 202 9,2 C 10,3 C 0,0 km/h (0 Bft)
06.10.2013 01:05 9,8 C 96 % 1021,0 hPa 0,0 l/m 0,5 km/h (0 Bft) S-SW 202 9,2 C 10,3 C 2,6 km/h (1 Bft)
06.10.2013 01:10 9,8 C 96 % 1021,0 hPa 0,0 l/m 0,5 km/h (0 Bft) S-SO 157 9,2 C 10,3 C 0,0 km/h (0 Bft)
06.10.2013 01:15 10,0 C 96 % 1021,0 hPa 0,0 l/m 1,4 km/h (1 Bft) S 180 9,4 C 10,4 C 1,8 km/h (1 Bft)
06.10.2013 01:20 10,0 C 96 % 1021,0 hPa 0,0 l/m 1,9 km/h (1 Bft) S-SO 157 9,4 C 10,5 C 5,8 km/h (2 Bft)
06.10.2013 01:25 10,1 C 96 % 1021,0 hPa 0,0 l/m 1,9 km/h (1 Bft) S-SO 157 9,5 C 10,6 C 0,0 km/h (0 Bft)
06.10.2013 01:30 10,1 C 96 % 1021,0 hPa 0,0 l/m 1,6 km/h (1 Bft) S-SO 157 9,5 C 10,7 C 0,0 km/h (0 Bft)
06.10.2013 01:35 10,2 C 96 % 1021,0 hPa 0,0 l/m 1,4 km/h (1 Bft) S 180 9,6 C 10,8 C 4,7 km/h (1 Bft)
06.10.2013 01:40 10,2 C 96 % 1021,0 hPa 0,0 l/m 2,1 km/h (1 Bft) S-SO 157 9,6 C 10,8 C 3,5 km/h (1 Bft)
06.10.2013 01:45 10,1 C 96 % 1021,1 hPa 0,0 l/m 3,1 km/h (1 Bft) SO 135 9,5 C 10,8 C 6,0 km/h (2 Bft)
06.10.2013 01:50 10,2 C 96 % 1021,1 hPa 0,0 l/m 3,1 km/h (1 Bft) S 180 9,6 C 10,9 C 5,8 km/h (2 Bft)
06.10.2013 01:55 10,2 C 96 % 1021,1 hPa 0,0 l/m 3,4 km/h (1 Bft) O-SO 112 9,6 C 10,9 C 0,0 km/h (0 Bft)
06.10.2013 02:00 10,1 C 96 % 1021,1 hPa 0,0 l/m 2,7 km/h (1 Bft) S-SO 157 9,5 C 10,8 C 8,0 km/h (2 Bft)
06.10.2013 02:05 10,2 C 96 % 1021,2 hPa 0,0 l/m 2,4 km/h (1 Bft) S 180 9,6 C 10,9 C 2,4 km/h (1 Bft)
06.10.2013 02:10 10,1 C 96 % 1021,2 hPa 0,0 l/m 2,7 km/h (1 Bft) O-NO 67 9,5 C 10,9 C 1,8 km/h (1 Bft)
06.10.2013 02:15 10,1 C 96 % 1021,2 hPa 0,0 l/m 1,8 km/h (1 Bft) S-SO 157 9,5 C 10,9 C 3,1 km/h (1 Bft)
06.10.2013 02:20 10,2 C 96 % 1021,2 hPa 0,0 l/m 1,4 km/h (1 Bft) W-SW 247 9,6 C 10,9 C 2,6 km/h (1 Bft)
06.10.2013 02:25 10,2 C 96 % 1021,2 hPa 0,0 l/m 2,6 km/h (1 Bft) O-SO 112 9,6 C 10,9 C 4,0 km/h (1 Bft)
06.10.2013 02:30 10,1 C 96 % 1021,2 hPa 0,0 l/m 2,6 km/h (1 Bft) W 270 9,5 C 11,0 C 4,0 km/h (1 Bft)
06.10.2013 02:35 10,2 C 96 % 1021,2 hPa 0,0 l/m 3,5 km/h (1 Bft) S-SO 157 9,6 C 11,0 C 7,1 km/h (2 Bft)
06.10.2013 02:40 10,3 C 96 % 1021,2 hPa 0,0 l/m 5,3 km/h (1 Bft) S 180 9,7 C 11,1 C 11,3 km/h (2 Bft)
06.10.2013 02:45 10,3 C 96 % 1021,3 hPa 0,0 l/m 5,1 km/h (1 Bft) O-SO 112 9,7 C 11,1 C 6,1 km/h (2 Bft)
06.10.2013 02:50 10,3 C 96 % 1021,3 hPa 0,0 l/m 4,8 km/h (1 Bft) O-SO 112 9,7 C 11,1 C 4,3 km/h (1 Bft)
06.10.2013 02:55 10,2 C 96 % 1021,3 hPa 0,0 l/m 4,5 km/h (1 Bft) SO 135 9,6 C 11,0 C 3,4 km/h (1 Bft)
06.10.2013 03:00 10,0 C 96 % 1021,3 hPa 0,0 l/m 3,4 km/h (1 Bft) NO 45 9,4 C 11,0 C 0,0 km/h (0 Bft)
06.10.2013 03:05 10,1 C 96 % 1021,5 hPa 0,0 l/m 2,4 km/h (1 Bft) O-SO 112 9,5 C 10,8 C 3,1 km/h (1 Bft)
06.10.2013 03:10 10,0 C 96 % 1021,5 hPa 0,0 l/m 2,6 km/h (1 Bft) S 180 9,4 C 10,8 C 6,8 km/h (2 Bft)
06.10.2013 03:15 10,1 C 96 % 1021,5 hPa 0,0 l/m 3,9 km/h (1 Bft) SO 135 9,5 C 10,9 C 6,9 km/h (2 Bft)
06.10.2013 03:20 10,2 C 96 % 1021,5 hPa 0,0 l/m 3,9 km/h (1 Bft) S 180 9,6 C 11,0 C 7,1 km/h (2 Bft)
06.10.2013 03:25 10,3 C 96 % 1021,6 hPa 0,0 l/m 3,9 km/h (1 Bft) S 180 9,7 C 11,0 C 7,4 km/h (2 Bft)
06.10.2013 03:30 10,3 C 96 % 1021,6 hPa 0,0 l/m 3,7 km/h (1 Bft) S 180 9,7 C 11,1 C 6,3 km/h (2 Bft)
06.10.2013 03:35 10,3 C 96 % 1021,6 hPa 0,0 l/m 3,1 km/h (1 Bft) O-SO 112 9,7 C 11,1 C 3,4 km/h (1 Bft)
06.10.2013 03:40 10,3 C 96 % 1021,6 hPa 0,0 l/m 2,6 km/h (1 Bft) S-SO 157 9,7 C 11,0 C 0,0 km/h (0 Bft)
06.10.2013 03:45 10,2 C 96 % 1021,4 hPa 0,0 l/m 1,1 km/h (1 Bft) NO 45 9,6 C 10,9 C 2,1 km/h (1 Bft)
06.10.2013 03:50 10,1 C 96 % 1021,4 hPa 0,0 l/m 0,5 km/h (0 Bft) S-SO 157 9,5 C 10,8 C 2,1 km/h (1 Bft)
06.10.2013 03:55 10,1 C 96 % 1021,4 hPa 0,0 l/m 0,2 km/h (0 Bft) O 90 9,5 C 10,6 C 0,0 km/h (0 Bft)
06.10.2013 04:00 10,1 C 96 % 1021,4 hPa 0,0 l/m 0,2 km/h (0 Bft) SO 135 9,5 C 10,5 C 0,0 km/h (0 Bft)
06.10.2013 04:05 10,2 C 96 % 1021,2 hPa 0,0 l/m 0,2 km/h (0 Bft) NO 45 9,6 C 10,5 C 0,0 km/h (0 Bft)
06.10.2013 04:10 10,1 C 96 % 1021,2 hPa 0,0 l/m 0,2 km/h (0 Bft) O 90 9,5 C 10,5 C 0,0 km/h (0 Bft)
06.10.2013 04:15 10,1 C 96 % 1021,2 hPa 0,0 l/m 0,3 km/h (0 Bft) NO 45 9,5 C 10,4 C 0,0 km/h (0 Bft)
06.10.2013 04:20 10,1 C 96 % 1021,2 hPa 0,0 l/m 0,6 km/h (0 Bft) O-NO 67 9,5 C 10,4 C 2,3 km/h (1 Bft)
06.10.2013 04:25 10,1 C 96 % 1021,6 hPa 0,0 l/m 0,5 km/h (0 Bft) SO 135 9,5 C 10,5 C 0,0 km/h (0 Bft)
06.10.2013 04:30 10,2 C 96 % 1021,6 hPa 0,0 l/m 0,6 km/h (0 Bft) S 180 9,6 C 10,5 C 2,7 km/h (1 Bft)
06.10.2013 04:35 10,2 C 96 % 1021,6 hPa 0,0 l/m 1,6 km/h (1 Bft) O-SO 112 9,6 C 10,7 C 4,8 km/h (1 Bft)
06.10.2013 04:40 10,2 C 96 % 1021,6 hPa 0,0 l/m 2,1 km/h (1 Bft) O 90 9,6 C 10,8 C 0,0 km/h (0 Bft)
06.10.2013 04:45 10,2 C 96 % 1021,7 hPa 0,0 l/m 1,3 km/h (1 Bft) O-SO 112 9,6 C 10,8 C 0,0 km/h (0 Bft)
06.10.2013 04:50 10,3 C 96 % 1021,7 hPa 0,0 l/m 0,5 km/h (0 Bft) O 90 9,7 C 10,8 C 0,0 km/h (0 Bft)
06.10.2013 04:55 10,3 C 96 % 1021,7 hPa 0,0 l/m 0,2 km/h (0 Bft) O 90 9,7 C 10,7 C 0,0 km/h (0 Bft)
06.10.2013 05:00 10,2 C 96 % 1021,7 hPa 0,0 l/m 0,0 km/h (0 Bft) NO 45 9,6 C 10,6 C 0,0 km/h (0 Bft)
06.10.2013 05:05 10,2 C 96 % 1021,7 hPa 0,0 l/m 0,0 km/h (0 Bft) S-SO 157 9,6 C 10,5 C 0,0 km/h (0 Bft)
06.10.2013 05:10 10,3 C 96 % 1021,7 hPa 0,0 l/m 0,8 km/h (0 Bft) O-SO 112 9,7 C 10,5 C 4,5 km/h (1 Bft)
06.10.2013 05:15 10,3 C 96 % 1021,7 hPa 0,0 l/m 2,4 km/h (1 Bft) NO 45 9,7 C 10,7 C 2,6 km/h (1 Bft)
06.10.2013 05:20 10,4 C 96 % 1021,7 hPa 0,0 l/m 2,4 km/h (1 Bft) O-SO 112 9,8 C 10,8 C 0,0 km/h (0 Bft)
06.10.2013 05:25 10,3 C 96 % 1021,8 hPa 0,0 l/m 1,0 km/h (0 Bft) N 360 9,7 C 10,8 C 0,0 km/h (0 Bft)
06.10.2013 05:30 10,3 C 96 % 1021,8 hPa 0,0 l/m 0,8 km/h (0 Bft) O 90 9,7 C 10,7 C 0,0 km/h (0 Bft)
06.10.2013 05:35 10,3 C 96 % 1021,8 hPa 0,0 l/m 0,5 km/h (0 Bft) O 90 9,7 C 10,7 C 0,0 km/h (0 Bft)
06.10.2013 05:40 10,4 C 96 % 1021,8 hPa 0,0 l/m 0,3 km/h (0 Bft) O-SO 112 9,8 C 10,7 C 3,5 km/h (1 Bft)
06.10.2013 05:45 10,4 C 96 % 1021,6 hPa 0,0 l/m 1,6 km/h (1 Bft) NO 45 9,8 C 10,8 C 2,4 km/h (1 Bft)
06.10.2013 05:50 10,4 C 96 % 1021,6 hPa 0,0 l/m 2,4 km/h (1 Bft) O-SO 112 9,8 C 10,8 C 1,8 km/h (1 Bft)
06.10.2013 05:55 10,3 C 96 % 1021,6 hPa 0,0 l/m 2,4 km/h (1 Bft) NO 45 9,7 C 10,8 C 3,9 km/h (1 Bft)
06.10.2013 06:00 10,3 C 96 % 1021,6 hPa 0,0 l/m 1,8 km/h (1 Bft) O-NO 67 9,7 C 10,7 C 0,0 km/h (0 Bft)
06.10.2013 06:05 10,3 C 96 % 1021,9 hPa 0,0 l/m 1,1 km/h (1 Bft) NO 45 9,7 C 10,6 C 2,3 km/h (1 Bft)
06.10.2013 06:10 10,3 C 96 % 1021,9 hPa 0,0 l/m 0,6 km/h (0 Bft) NO 45 9,7 C 10,6 C 2,4 km/h (1 Bft)
06.10.2013 06:15 10,2 C 96 % 1021,9 hPa 0,0 l/m 0,5 km/h (0 Bft) N-NO 22 9,6 C 10,5 C 0,0 km/h (0 Bft)
06.10.2013 06:20 10,1 C 96 % 1021,9 hPa 0,0 l/m 0,3 km/h (0 Bft) SO 135 9,5 C 10,5 C 0,0 km/h (0 Bft)
06.10.2013 06:25 10,0 C 96 % 1021,9 hPa 0,0 l/m 0,0 km/h (0 Bft) S-SW 202 9,4 C 10,3 C 0,0 km/h (0 Bft)
06.10.2013 06:30 9,9 C 96 % 1021,9 hPa 0,0 l/m 0,2 km/h (0 Bft) SO 135 9,3 C 10,2 C 2,1 km/h (1 Bft)
06.10.2013 06:35 10,1 C 96 % 1021,9 hPa 0,0 l/m 1,1 km/h (1 Bft) O-NO 67 9,5 C 10,2 C 1,6 km/h (1 Bft)
06.10.2013 06:40 10,1 C 96 % 1021,9 hPa 0,0 l/m 1,3 km/h (1 Bft) NO 45 9,5 C 10,2 C 0,0 km/h (0 Bft)
06.10.2013 06:45 10,0 C 96 % 1022,1 hPa 0,0 l/m 0,3 km/h (0 Bft) NO 45 9,4 C 10,1 C 0,0 km/h (0 Bft)
06.10.2013 06:50 10,0 C 96 % 1022,1 hPa 0,0 l/m 0,0 km/h (0 Bft) O-SO 112 9,4 C 10,0 C 0,0 km/h (0 Bft)
06.10.2013 06:55 9,9 C 96 % 1022,1 hPa 0,0 l/m 0,2 km/h (0 Bft) NO 45 9,3 C 9,9 C 0,0 km/h (0 Bft)
06.10.2013 07:00 9,8 C 96 % 1022,1 hPa 0,0 l/m 1,1 km/h (1 Bft) O 90 9,2 C 9,7 C 3,1 km/h (1 Bft)
06.10.2013 07:05 9,8 C 96 % 1022,1 hPa 0,0 l/m 2,6 km/h (1 Bft) O 90 9,2 C 9,7 C 3,9 km/h (1 Bft)
06.10.2013 07:10 9,8 C 96 % 1022,1 hPa 0,0 l/m 3,1 km/h (1 Bft) NO 45 9,2 C 9,7 C 3,9 km/h (1 Bft)
06.10.2013 07:15 9,7 C 96 % 1022,1 hPa 0,0 l/m 3,1 km/h (1 Bft) O-SO 112 9,1 C 9,7 C 1,9 km/h (1 Bft)
06.10.2013 07:20 9,5 C 96 % 1022,1 hPa 0,0 l/m 2,9 km/h (1 Bft) O-SO 112 8,9 C 9,6 C 3,1 km/h (1 Bft)
06.10.2013 07:25 9,6 C 96 % 1022,2 hPa 0,0 l/m 1,9 km/h (1 Bft) O 90 9,0 C 9,5 C 3,4 km/h (1 Bft)
06.10.2013 07:30 9,7 C 96 % 1022,2 hPa 0,0 l/m 2,4 km/h (1 Bft) NO 45 9,1 C 9,6 C 4,2 km/h (1 Bft)
06.10.2013 07:35 9,7 C 96 % 1022,2 hPa 0,0 l/m 3,1 km/h (1 Bft) O-NO 67 9,1 C 9,7 C 3,4 km/h (1 Bft)
06.10.2013 07:40 9,7 C 96 % 1022,2 hPa 0,0 l/m 2,6 km/h (1 Bft) O-SO 112 9,1 C 9,7 C 2,4 km/h (1 Bft)
06.10.2013 07:45 9,7 C 96 % 1022,2 hPa 0,0 l/m 1,6 km/h (1 Bft) NO 45 9,1 C 9,8 C 2,6 km/h (1 Bft)
06.10.2013 07:50 9,8 C 96 % 1022,2 hPa 0,0 l/m 1,3 km/h (1 Bft) O 90 9,2 C 9,9 C 0,0 km/h (0 Bft)
06.10.2013 07:55 9,9 C 96 % 1022,2 hPa 0,0 l/m 0,8 km/h (0 Bft) O 90 9,3 C 9,9 C 0,0 km/h (0 Bft)
06.10.2013 08:00 9,9 C 96 % 1022,2 hPa 0,0 l/m 0,8 km/h (0 Bft) O-NO 67 9,3 C 10,1 C 0,0 km/h (0 Bft)
06.10.2013 08:05 9,9 C 96 % 1022,7 hPa 0,0 l/m 0,5 km/h (0 Bft) N-NO 22 9,3 C 10,1 C 0,0 km/h (0 Bft)
06.10.2013 08:10 10,0 C 96 % 1022,7 hPa 0,0 l/m 0,2 km/h (0 Bft) O 90 9,4 C 10,2 C 0,0 km/h (0 Bft)
06.10.2013 08:15 10,0 C 96 % 1022,7 hPa 0,0 l/m 0,2 km/h (0 Bft) O-NO 67 9,4 C 10,3 C 0,0 km/h (0 Bft)
06.10.2013 08:20 10,0 C 96 % 1022,7 hPa 0,0 l/m 0,2 km/h (0 Bft) S 180 9,4 C 10,3 C 0,0 km/h (0 Bft)
06.10.2013 08:25 10,0 C 96 % 1022,7 hPa 0,0 l/m 0,6 km/h (0 Bft) O-SO 112 9,4 C 10,3 C 2,4 km/h (1 Bft)
06.10.2013 08:30 10,0 C 96 % 1022,7 hPa 0,0 l/m 1,1 km/h (1 Bft) S 180 9,4 C 10,3 C 1,8 km/h (1 Bft)
06.10.2013 08:35 9,9 C 96 % 1022,7 hPa 0,0 l/m 2,3 km/h (1 Bft) SO 135 9,3 C 10,5 C 2,9 km/h (1 Bft)
06.10.2013 08:40 10,0 C 96 % 1022,7 hPa 0,0 l/m 2,3 km/h (1 Bft) S 180 9,4 C 10,6 C 3,1 km/h (1 Bft)
06.10.2013 08:45 10,0 C 96 % 1022,8 hPa 0,0 l/m 2,4 km/h (1 Bft) SO 135 9,4 C 11,5 C 5,1 km/h (1 Bft)
06.10.2013 08:50 10,3 C 96 % 1022,8 hPa 0,0 l/m 2,3 km/h (1 Bft) SO 135 9,7 C 11,6 C 2,6 km/h (1 Bft)
06.10.2013 08:55 10,9 C 96 % 1022,8 hPa 0,0 l/m 3,1 km/h (1 Bft) S 180 10,3 C 13,4 C 4,5 km/h (1 Bft)
06.10.2013 09:00 11,3 C 96 % 1022,8 hPa 0,0 l/m 3,5 km/h (1 Bft) S-SW 202 10,7 C 14,8 C 5,0 km/h (1 Bft)
06.10.2013 09:05 11,6 C 96 % 1023,0 hPa 0,0 l/m 4,2 km/h (1 Bft) S-SO 157 11,0 C 15,5 C 4,5 km/h (1 Bft)
06.10.2013 09:10 11,7 C 96 % 1023,0 hPa 0,0 l/m 5,0 km/h (1 Bft) S 180 11,1 C 14,9 C 6,1 km/h (2 Bft)
06.10.2013 09:15 11,7 C 96 % 1023,0 hPa 0,0 l/m 4,5 km/h (1 Bft) S-SO 157 11,1 C 13,9 C 4,3 km/h (1 Bft)
06.10.2013 09:20 11,7 C 96 % 1023,0 hPa 0,0 l/m 3,7 km/h (1 Bft) S-SO 157 11,1 C 13,5 C 3,7 km/h (1 Bft)
06.10.2013 09:25 11,9 C 95 % 1023,2 hPa 0,0 l/m 2,3 km/h (1 Bft) O-NO 67 11,1 C 13,5 C 6,1 km/h (2 Bft)
06.10.2013 09:30 11,9 C 95 % 1023,2 hPa 0,0 l/m 1,6 km/h (1 Bft) SO 135 11,1 C 13,6 C 4,8 km/h (1 Bft)
06.10.2013 09:35 11,9 C 95 % 1023,2 hPa 0,0 l/m 2,6 km/h (1 Bft) O-NO 67 11,1 C 13,7 C 2,9 km/h (1 Bft)
06.10.2013 09:40 11,9 C 95 % 1023,2 hPa 0,0 l/m 3,1 km/h (1 Bft) O-NO 67 11,1 C 13,9 C 6,8 km/h (2 Bft)
06.10.2013 09:45 12,0 C 95 % 1023,4 hPa 0,0 l/m 2,7 km/h (1 Bft) O-SO 112 11,2 C 15,9 C 4,8 km/h (1 Bft)
06.10.2013 09:50 12,5 C 95 % 1023,4 hPa 0,0 l/m 2,4 km/h (1 Bft) SO 135 11,7 C 17,0 C 5,0 km/h (1 Bft)
06.10.2013 09:55 14,6 C 94 % 1023,4 hPa 0,0 l/m 3,2 km/h (1 Bft) S 180 13,6 C 18,0 C 4,8 km/h (1 Bft)
06.10.2013 10:00 15,1 C 93 % 1023,4 hPa 0,0 l/m 4,5 km/h (1 Bft) S 180 14,0 C 18,4 C 8,0 km/h (2 Bft)
06.10.2013 10:05 16,3 C 89 % 1023,4 hPa 0,0 l/m 5,6 km/h (1 Bft) S-SO 157 14,5 C 18,5 C 7,6 km/h (2 Bft)
06.10.2013 10:10 15,1 C 86 % 1023,4 hPa 0,0 l/m 5,3 km/h (1 Bft) SO 135 12,8 C 18,5 C 2,9 km/h (1 Bft)
06.10.2013 10:15 14,9 C 85 % 1023,4 hPa 0,0 l/m 4,5 km/h (1 Bft) S 180 12,4 C 18,9 C 7,1 km/h (2 Bft)
06.10.2013 10:20 14,6 C 84 % 1023,4 hPa 0,0 l/m 5,1 km/h (1 Bft) S-SW 202 11,9 C 17,8 C 8,0 km/h (2 Bft)
06.10.2013 10:25 15,4 C 83 % 1023,9 hPa 0,0 l/m 6,4 km/h (2 Bft) S-SO 157 12,5 C 17,1 C 10,6 km/h (2 Bft)
06.10.2013 10:30 15,0 C 83 % 1023,9 hPa 0,0 l/m 5,5 km/h (1 Bft) S 180 12,1 C 16,7 C 4,5 km/h (1 Bft)
06.10.2013 10:35 14,8 C 83 % 1023,9 hPa 0,0 l/m 4,8 km/h (1 Bft) S 180 11,9 C 16,2 C 4,0 km/h (1 Bft)
06.10.2013 10:40 15,1 C 86 % 1023,9 hPa 0,0 l/m 4,2 km/h (1 Bft) SO 135 12,8 C 16,1 C 5,3 km/h (1 Bft)
06.10.2013 10:45 15,3 C 85 % 1024,2 hPa 0,0 l/m 3,1 km/h (1 Bft) S-SW 202 12,8 C 16,2 C 5,3 km/h (1 Bft)
06.10.2013 10:50 15,4 C 84 % 1024,2 hPa 0,0 l/m 2,7 km/h (1 Bft) O 90 12,7 C 16,4 C 3,7 km/h (1 Bft)
06.10.2013 10:55 14,9 C 84 % 1024,2 hPa 0,0 l/m 3,5 km/h (1 Bft) O-NO 67 12,2 C 16,2 C 2,4 km/h (1 Bft)
06.10.2013 11:00 15,1 C 84 % 1024,2 hPa 0,0 l/m 3,4 km/h (1 Bft) SO 135 12,4 C 16,2 C 0,0 km/h (0 Bft)
06.10.2013 11:05 15,3 C 86 % 1024,2 hPa 0,0 l/m 1,4 km/h (1 Bft) S-SW 202 13,0 C 16,5 C 0,0 km/h (0 Bft)
06.10.2013 11:10 15,3 C 84 % 1024,2 hPa 0,0 l/m 1,4 km/h (1 Bft) S-SW 202 12,6 C 16,5 C 1,9 km/h (1 Bft)
06.10.2013 11:15 15,7 C 86 % 1024,2 hPa 0,0 l/m 1,1 km/h (1 Bft) W-SW 247 13,4 C 16,7 C 3,4 km/h (1 Bft)
06.10.2013 11:20 15,7 C 86 % 1024,2 hPa 0,0 l/m 1,3 km/h (1 Bft) S-SW 202 13,4 C 17,0 C 3,2 km/h (1 Bft)
06.10.2013 11:25 16,0 C 85 % 1024,3 hPa 0,0 l/m 1,6 km/h (1 Bft) S-SW 202 13,5 C 17,3 C 0,0 km/h (0 Bft)
06.10.2013 11:30 16,6 C 85 % 1024,3 hPa 0,0 l/m 1,1 km/h (1 Bft) S 180 14,1 C 17,7 C 0,0 km/h (0 Bft)
06.10.2013 11:35 17,4 C 76 % 1024,3 hPa 0,0 l/m 1,8 km/h (1 Bft) W-SW 247 13,1 C 19,2 C 6,3 km/h (2 Bft)
06.10.2013 11:40 16,9 C 76 % 1024,3 hPa 0,0 l/m 3,4 km/h (1 Bft) SW 225 12,6 C 19,1 C 4,0 km/h (1 Bft)
06.10.2013 11:45 16,1 C 76 % 1024,7 hPa 0,0 l/m 4,5 km/h (1 Bft) S 180 11,9 C 18,6 C 7,4 km/h (2 Bft)
06.10.2013 11:50 15,7 C 76 % 1024,7 hPa 0,0 l/m 4,8 km/h (1 Bft) W-SW 247 11,5 C 17,9 C 6,1 km/h (2 Bft)
06.10.2013 11:55 15,8 C 79 % 1024,7 hPa 0,0 l/m 4,0 km/h (1 Bft) S 180 12,2 C 17,3 C 5,0 km/h (1 Bft)
06.10.2013 12:00 15,8 C 78 % 1024,7 hPa 0,0 l/m 3,5 km/h (1 Bft) S-SO 157 12,0 C 17,2 C 2,7 km/h (1 Bft)
06.10.2013 12:05 16,0 C 79 % 1024,8 hPa 0,0 l/m 2,4 km/h (1 Bft) S-SO 157 12,4 C 17,4 C 1,8 km/h (1 Bft)
06.10.2013 12:10 16,3 C 80 % 1024,8 hPa 0,0 l/m 1,6 km/h (1 Bft) S-SW 202 12,8 C 17,7 C 2,4 km/h (1 Bft)
06.10.2013 12:15 16,3 C 78 % 1024,8 hPa 0,0 l/m 1,6 km/h (1 Bft) S 180 12,5 C 17,9 C 1,6 km/h (1 Bft)
06.10.2013 12:20 16,3 C 78 % 1024,8 hPa 0,0 l/m 1,4 km/h (1 Bft) SW 225 12,5 C 18,1 C 0,0 km/h (0 Bft)
06.10.2013 12:25 16,7 C 79 % 1024,8 hPa 0,0 l/m 1,1 km/h (1 Bft) SW 225 13,0 C 18,2 C 2,3 km/h (1 Bft)
06.10.2013 12:30 16,7 C 76 % 1024,8 hPa 0,0 l/m 1,1 km/h (1 Bft) W-SW 247 12,4 C 18,4 C 3,2 km/h (1 Bft)
06.10.2013 12:35 16,7 C 76 % 1024,8 hPa 0,0 l/m 1,9 km/h (1 Bft) S-SW 202 12,4 C 18,4 C 0,0 km/h (0 Bft)
06.10.2013 12:40 16,6 C 74 % 1024,8 hPa 0,0 l/m 3,4 km/h (1 Bft) W-SW 247 11,9 C 18,2 C 5,0 km/h (1 Bft)
06.10.2013 12:45 16,4 C 75 % 1025,0 hPa 0,0 l/m 3,7 km/h (1 Bft) S-SO 157 12,0 C 17,9 C 4,0 km/h (1 Bft)
06.10.2013 12:50 16,4 C 74 % 1025,0 hPa 0,0 l/m 3,7 km/h (1 Bft) W-SW 247 11,8 C 17,7 C 4,7 km/h (1 Bft)
06.10.2013 12:55 16,5 C 74 % 1025,0 hPa 0,0 l/m 3,2 km/h (1 Bft) S 180 11,8 C 17,6 C 1,9 km/h (1 Bft)
06.10.2013 13:00 16,8 C 72 % 1025,0 hPa 0,0 l/m 2,6 km/h (1 Bft) S-SW 202 11,7 C 18,0 C 3,7 km/h (1 Bft)
06.10.2013 13:05 16,7 C 69 % 1024,6 hPa 0,0 l/m 2,7 km/h (1 Bft) S-SW 202 11,0 C 18,2 C 3,5 km/h (1 Bft)
06.10.2013 13:10 16,8 C 70 % 1024,6 hPa 0,0 l/m 3,2 km/h (1 Bft) SW 225 11,3 C 18,4 C 0,0 km/h (0 Bft)
06.10.2013 13:15 17,0 C 71 % 1024,6 hPa 0,0 l/m 2,7 km/h (1 Bft) S-SW 202 11,7 C 18,4 C 2,1 km/h (1 Bft)
06.10.2013 13:20 16,8 C 70 % 1024,6 hPa 0,0 l/m 2,9 km/h (1 Bft) S 180 11,3 C 18,3 C 3,4 km/h (1 Bft)
06.10.2013 13:25 16,9 C 70 % 1024,6 hPa 0,0 l/m 2,7 km/h (1 Bft) S 180 11,4 C 18,2 C 2,9 km/h (1 Bft)
06.10.2013 13:30 16,8 C 70 % 1024,6 hPa 0,0 l/m 1,9 km/h (1 Bft) S 180 11,3 C 18,2 C 3,2 km/h (1 Bft)
06.10.2013 13:35 16,8 C 69 % 1024,6 hPa 0,0 l/m 2,1 km/h (1 Bft) S 180 11,1 C 18,3 C 1,9 km/h (1 Bft)
06.10.2013 13:40 16,7 C 68 % 1024,6 hPa 0,0 l/m 1,4 km/h (1 Bft) W-SW 247 10,8 C 18,4 C 0,0 km/h (0 Bft)
06.10.2013 13:45 16,6 C 69 % 1024,6 hPa 0,0 l/m 0,3 km/h (0 Bft) SW 225 10,9 C 18,7 C 1,8 km/h (1 Bft)
06.10.2013 13:50 16,6 C 69 % 1024,6 hPa 0,0 l/m 1,1 km/h (1 Bft) S-SW 202 10,9 C 18,6 C 1,9 km/h (1 Bft)
06.10.2013 13:55 16,3 C 68 % 1024,6 hPa 0,0 l/m 1,8 km/h (1 Bft) W-NW 292 10,4 C 18,3 C 5,3 km/h (1 Bft)
06.10.2013 14:00 16,1 C 68 % 1024,6 hPa 0,0 l/m 2,1 km/h (1 Bft) W-NW 292 10,2 C 18,0 C 3,5 km/h (1 Bft)
06.10.2013 14:05 16,1 C 70 % 1024,2 hPa 0,0 l/m 3,2 km/h (1 Bft) S-SW 202 10,6 C 17,5 C 4,0 km/h (1 Bft)
06.10.2013 14:10 16,1 C 70 % 1024,2 hPa 0,0 l/m 2,4 km/h (1 Bft) W-SW 247 10,6 C 17,4 C 0,0 km/h (0 Bft)
06.10.2013 14:15 15,9 C 71 % 1024,2 hPa 0,0 l/m 1,1 km/h (1 Bft) W-NW 292 10,6 C 17,4 C 3,2 km/h (1 Bft)
06.10.2013 14:20 15,9 C 71 % 1024,2 hPa 0,0 l/m 0,8 km/h (0 Bft) W-SW 247 10,6 C 17,4 C 2,3 km/h (1 Bft)
06.10.2013 14:25 16,2 C 71 % 1024,0 hPa 0,0 l/m 1,0 km/h (0 Bft) W-SW 247 10,9 C 17,4 C 1,8 km/h (1 Bft)
06.10.2013 14:30 15,8 C 69 % 1024,0 hPa 0,0 l/m 0,6 km/h (0 Bft) N-NW 337 10,1 C 17,4 C 0,0 km/h (0 Bft)
06.10.2013 14:35 15,9 C 71 % 1024,0 hPa 0,0 l/m 0,8 km/h (0 Bft) W-SW 247 10,6 C 17,2 C 0,0 km/h (0 Bft)
06.10.2013 14:40 16,0 C 70 % 1024,0 hPa 0,0 l/m 1,0 km/h (0 Bft) W 270 10,5 C 17,2 C 2,3 km/h (1 Bft)
06.10.2013 14:45 15,8 C 71 % 1024,1 hPa 0,0 l/m 0,6 km/h (0 Bft) N 360 10,6 C 17,2 C 0,0 km/h (0 Bft)
06.10.2013 14:50 15,6 C 72 % 1024,1 hPa 0,0 l/m 0,3 km/h (0 Bft) NW 315 10,6 C 17,2 C 0,0 km/h (0 Bft)
06.10.2013 14:55 15,5 C 74 % 1024,1 hPa 0,0 l/m 0,0 km/h (0 Bft) W-NW 292 10,9 C 17,0 C 0,0 km/h (0 Bft)
06.10.2013 15:00 15,5 C 74 % 1024,1 hPa 0,0 l/m 0,2 km/h (0 Bft) SW 225 10,9 C 16,8 C 0,0 km/h (0 Bft)
06.10.2013 15:05 15,6 C 74 % 1024,0 hPa 0,0 l/m 0,2 km/h (0 Bft) SW 225 11,0 C 16,6 C 0,0 km/h (0 Bft)
06.10.2013 15:10 15,6 C 73 % 1024,0 hPa 0,0 l/m 0,8 km/h (0 Bft) S-SW 202 10,8 C 16,6 C 2,4 km/h (1 Bft)
06.10.2013 15:15 15,4 C 73 % 1024,0 hPa 0,0 l/m 1,1 km/h (1 Bft) N-NO 22 10,6 C 16,5 C 0,0 km/h (0 Bft)
06.10.2013 15:20 15,4 C 74 % 1024,0 hPa 0,0 l/m 0,8 km/h (0 Bft) N-NO 22 10,8 C 16,6 C 0,0 km/h (0 Bft)
06.10.2013 15:25 15,3 C 75 % 1024,0 hPa 0,0 l/m 0,8 km/h (0 Bft) N-NW 337 10,9 C 16,6 C 1,6 km/h (1 Bft)
06.10.2013 15:30 15,2 C 76 % 1024,0 hPa 0,0 l/m 1,4 km/h (1 Bft) N 360 11,0 C 16,4 C 2,9 km/h (1 Bft)
06.10.2013 15:35 15,1 C 77 % 1024,0 hPa 0,0 l/m 1,3 km/h (1 Bft) N-NO 22 11,1 C 16,3 C 0,0 km/h (0 Bft)
06.10.2013 15:40 15,0 C 78 % 1024,0 hPa 0,0 l/m 1,0 km/h (0 Bft) N 360 11,2 C 16,2 C 0,0 km/h (0 Bft)
06.10.2013 15:45 15,0 C 78 % 1024,0 hPa 0,0 l/m 0,5 km/h (0 Bft) NW 315 11,2 C 15,9 C 0,0 km/h (0 Bft)
06.10.2013 15:50 14,8 C 79 % 1024,0 hPa 0,0 l/m 0,5 km/h (0 Bft) N 360 11,2 C 15,9 C 0,0 km/h (0 Bft)
06.10.2013 15:55 14,8 C 79 % 1024,0 hPa 0,0 l/m 1,0 km/h (0 Bft) N 360 11,2 C 15,8 C 5,1 km/h (1 Bft)
06.10.2013 16:00 14,8 C 79 % 1024,0 hPa 0,0 l/m 1,0 km/h (0 Bft) NO 45 11,2 C 15,7 C 0,0 km/h (0 Bft)
06.10.2013 16:05 14,8 C 79 % 1024,1 hPa 0,0 l/m 0,6 km/h (0 Bft) N 360 11,2 C 15,8 C 0,0 km/h (0 Bft)
06.10.2013 16:10 14,8 C 79 % 1024,1 hPa 0,0 l/m 0,5 km/h (0 Bft) N-NW 337 11,2 C 15,7 C 0,0 km/h (0 Bft)
06.10.2013 16:15 14,7 C 79 % 1024,1 hPa 0,0 l/m 0,3 km/h (0 Bft) NO 45 11,1 C 15,6 C 0,0 km/h (0 Bft)
06.10.2013 16:20 14,7 C 80 % 1024,1 hPa 0,0 l/m 0,3 km/h (0 Bft) NO 45 11,3 C 15,6 C 1,8 km/h (1 Bft)
06.10.2013 16:25 14,8 C 80 % 1024,1 hPa 0,0 l/m 0,5 km/h (0 Bft) N-NW 337 11,4 C 15,6 C 0,0 km/h (0 Bft)
06.10.2013 16:30 15,0 C 80 % 1024,1 hPa 0,0 l/m 0,3 km/h (0 Bft) NW 315 11,6 C 15,6 C 0,0 km/h (0 Bft)
06.10.2013 16:35 15,0 C 80 % 1024,1 hPa 0,0 l/m 0,3 km/h (0 Bft) N 360 11,6 C 15,6 C 0,0 km/h (0 Bft)
06.10.2013 16:40 14,9 C 80 % 1024,1 hPa 0,0 l/m 0,3 km/h (0 Bft) W-NW 292 11,5 C 15,6 C 0,0 km/h (0 Bft)
06.10.2013 16:45 14,5 C 80 % 1023,9 hPa 0,0 l/m 1,6 km/h (1 Bft) N-NW 337 11,1 C 15,5 C 2,1 km/h (1 Bft)
06.10.2013 16:50 14,4 C 80 % 1023,9 hPa 0,0 l/m 2,4 km/h (1 Bft) N 360 11,0 C 15,3 C 2,9 km/h (1 Bft)
06.10.2013 16:55 14,2 C 81 % 1023,9 hPa 0,0 l/m 2,3 km/h (1 Bft) N 360 11,0 C 14,9 C 3,1 km/h (1 Bft)
06.10.2013 17:00 13,9 C 82 % 1023,9 hPa 0,0 l/m 2,4 km/h (1 Bft) N-NO 22 10,9 C 14,6 C 4,5 km/h (1 Bft)
06.10.2013 17:05 13,7 C 83 % 1024,0 hPa 0,0 l/m 1,3 km/h (1 Bft) N 360 10,9 C 14,1 C 0,0 km/h (0 Bft)
06.10.2013 17:10 13,7 C 84 % 1024,0 hPa 0,0 l/m 0,6 km/h (0 Bft) NW 315 11,0 C 13,9 C 1,9 km/h (1 Bft)
06.10.2013 17:15 13,6 C 84 % 1024,0 hPa 0,0 l/m 0,3 km/h (0 Bft) NW 315 10,9 C 13,7 C 0,0 km/h (0 Bft)
06.10.2013 17:20 13,5 C 84 % 1024,0 hPa 0,0 l/m 0,3 km/h (0 Bft) N-NW 337 10,8 C 13,6 C 0,0 km/h (0 Bft)
06.10.2013 17:25 13,4 C 85 % 1024,2 hPa 0,0 l/m 0,2 km/h (0 Bft) NO 45 10,9 C 13,4 C 0,0 km/h (0 Bft)
06.10.2013 17:30 13,3 C 85 % 1024,2 hPa 0,0 l/m 0,2 km/h (0 Bft) N-NO 22 10,8 C 13,4 C 0,0 km/h (0 Bft)
06.10.2013 17:35 13,2 C 85 % 1024,2 hPa 0,0 l/m 0,0 km/h (0 Bft) N-NO 22 10,7 C 13,3 C 0,0 km/h (0 Bft)
06.10.2013 17:40 13,2 C 85 % 1024,2 hPa 0,0 l/m 0,0 km/h (0 Bft) N 360 10,7 C 13,2 C 0,0 km/h (0 Bft)
06.10.2013 17:45 13,1 C 86 % 1024,1 hPa 0,0 l/m 0,0 km/h (0 Bft) NO 45 10,8 C 13,1 C 0,0 km/h (0 Bft)
06.10.2013 17:50 13,1 C 86 % 1024,1 hPa 0,0 l/m 0,0 km/h (0 Bft) NO 45 10,8 C 13,1 C 0,0 km/h (0 Bft)
06.10.2013 17:55 13,0 C 86 % 1024,1 hPa 0,0 l/m 0,0 km/h (0 Bft) N-NW 337 10,7 C 13,1 C 0,0 km/h (0 Bft)
06.10.2013 18:00 13,0 C 86 % 1024,1 hPa 0,0 l/m 0,0 km/h (0 Bft) NO 45 10,7 C 13,1 C 0,0 km/h (0 Bft)
06.10.2013 18:05 13,0 C 86 % 1024,2 hPa 0,0 l/m 0,0 km/h (0 Bft) W-NW 292 10,7 C 13,0 C 0,0 km/h (0 Bft)
06.10.2013 18:10 13,0 C 86 % 1024,2 hPa 0,0 l/m 0,0 km/h (0 Bft) N-NO 22 10,7 C 13,0 C 0,0 km/h (0 Bft)
06.10.2013 18:15 12,9 C 87 % 1024,2 hPa 0,0 l/m 0,5 km/h (0 Bft) NO 45 10,8 C 13,0 C 1,8 km/h (1 Bft)
06.10.2013 18:20 12,9 C 87 % 1024,2 hPa 0,0 l/m 1,1 km/h (1 Bft) O-NO 67 10,8 C 13,0 C 2,1 km/h (1 Bft)
06.10.2013 18:25 12,9 C 87 % 1024,4 hPa 0,0 l/m 1,3 km/h (1 Bft) O 90 10,8 C 13,0 C 0,0 km/h (0 Bft)
06.10.2013 18:30 12,8 C 87 % 1024,4 hPa 0,0 l/m 0,6 km/h (0 Bft) O 90 10,7 C 12,9 C 0,0 km/h (0 Bft)
06.10.2013 18:35 12,7 C 87 % 1024,4 hPa 0,0 l/m 0,0 km/h (0 Bft) NO 45 10,6 C 12,9 C 0,0 km/h (0 Bft)
06.10.2013 18:40 12,6 C 87 % 1024,4 hPa 0,0 l/m 0,0 km/h (0 Bft) NO 45 10,5 C 12,8 C 0,0 km/h (0 Bft)
06.10.2013 18:45 12,6 C 88 % 1024,4 hPa 0,0 l/m 0,0 km/h (0 Bft) O 90 10,7 C 12,8 C 0,0 km/h (0 Bft)
06.10.2013 18:50 12,7 C 88 % 1024,4 hPa 0,0 l/m 0,0 km/h (0 Bft) W-SW 247 10,8 C 12,8 C 0,0 km/h (0 Bft)
06.10.2013 18:55 12,7 C 88 % 1024,4 hPa 0,0 l/m 0,3 km/h (0 Bft) W 270 10,8 C 12,9 C 0,0 km/h (0 Bft)
06.10.2013 19:00 12,7 C 88 % 1024,4 hPa 0,0 l/m 0,3 km/h (0 Bft) W-SW 247 10,8 C 12,9 C 0,0 km/h (0 Bft)
06.10.2013 19:05 12,7 C 88 % 1024,4 hPa 0,0 l/m 0,0 km/h (0 Bft) S-SW 202 10,8 C 12,9 C 0,0 km/h (0 Bft)
06.10.2013 19:10 12,7 C 88 % 1024,4 hPa 0,0 l/m 0,0 km/h (0 Bft) W-SW 247 10,8 C 12,9 C 0,0 km/h (0 Bft)
06.10.2013 19:15 12,7 C 89 % 1024,4 hPa 0,0 l/m 0,3 km/h (0 Bft) W 270 10,9 C 12,8 C 2,1 km/h (1 Bft)
06.10.2013 19:20 12,6 C 89 % 1024,4 hPa 0,0 l/m 0,3 km/h (0 Bft) W 270 10,8 C 12,8 C 2,1 km/h (1 Bft)
06.10.2013 19:25 12,6 C 89 % 1024,6 hPa 0,0 l/m 0,5 km/h (0 Bft) W-SW 247 10,8 C 12,7 C 1,6 km/h (1 Bft)
06.10.2013 19:30 12,6 C 89 % 1024,6 hPa 0,0 l/m 0,5 km/h (0 Bft) W-SW 247 10,8 C 12,7 C 0,0 km/h (0 Bft)
06.10.2013 19:35 12,5 C 89 % 1024,6 hPa 0,0 l/m 0,2 km/h (0 Bft) W 270 10,7 C 12,7 C 0,0 km/h (0 Bft)
06.10.2013 19:40 12,5 C 89 % 1024,6 hPa 0,0 l/m 0,0 km/h (0 Bft) W-NW 292 10,7 C 12,6 C 0,0 km/h (0 Bft)
06.10.2013 19:45 12,5 C 90 % 1024,7 hPa 0,0 l/m 0,3 km/h (0 Bft) NW 315 10,9 C 12,6 C 0,0 km/h (0 Bft)
06.10.2013 19:50 12,4 C 91 % 1024,7 hPa 0,0 l/m 0,3 km/h (0 Bft) N 360 11,0 C 12,5 C 0,0 km/h (0 Bft)
06.10.2013 19:55 12,4 C 91 % 1024,7 hPa 0,0 l/m 0,2 km/h (0 Bft) W-NW 292 11,0 C 12,5 C 0,0 km/h (0 Bft)
06.10.2013 20:00 12,3 C 92 % 1024,7 hPa 0,7 l/m 0,2 km/h (0 Bft) W 270 11,0 C 12,4 C 1,8 km/h (1 Bft)
06.10.2013 20:05 12,3 C 92 % 1024,7 hPa 0,0 l/m 0,2 km/h (0 Bft) W 270 11,0 C 12,4 C 0,0 km/h (0 Bft)
06.10.2013 20:10 12,2 C 92 % 1024,7 hPa 0,0 l/m 0,5 km/h (0 Bft) N-NO 22 10,9 C 12,4 C 2,6 km/h (1 Bft)
06.10.2013 20:15 12,2 C 93 % 1024,7 hPa 0,0 l/m 0,3 km/h (0 Bft) N 360 11,1 C 12,4 C 1,8 km/h (1 Bft)
06.10.2013 20:20 12,2 C 93 % 1024,7 hPa 0,0 l/m 0,5 km/h (0 Bft) N 360 11,1 C 12,4 C 0,0 km/h (0 Bft)
06.10.2013 20:25 12,2 C 93 % 1025,0 hPa 0,0 l/m 0,5 km/h (0 Bft) N 360 11,1 C 12,4 C 0,0 km/h (0 Bft)
06.10.2013 20:30 12,2 C 93 % 1025,0 hPa 0,0 l/m 0,6 km/h (0 Bft) N 360 11,1 C 12,4 C 3,9 km/h (1 Bft)
06.10.2013 20:35 12,2 C 93 % 1025,0 hPa 0,0 l/m 0,8 km/h (0 Bft) N-NW 337 11,1 C 12,4 C 2,3 km/h (1 Bft)
06.10.2013 20:40 12,1 C 93 % 1025,0 hPa 0,0 l/m 1,0 km/h (0 Bft) NW 315 11,0 C 12,3 C 0,0 km/h (0 Bft)
06.10.2013 20:45 12,1 C 94 % 1025,2 hPa 0,0 l/m 0,8 km/h (0 Bft) N 360 11,2 C 12,3 C 2,4 km/h (1 Bft)
06.10.2013 20:50 12,1 C 94 % 1025,2 hPa 0,0 l/m 0,6 km/h (0 Bft) W-NW 292 11,2 C 12,3 C 1,9 km/h (1 Bft)
06.10.2013 20:55 12,0 C 94 % 1025,2 hPa 0,0 l/m 0,6 km/h (0 Bft) W-NW 292 11,1 C 12,2 C 0,0 km/h (0 Bft)
06.10.2013 21:00 12,0 C 94 % 1025,2 hPa 0,0 l/m 0,5 km/h (0 Bft) N 360 11,1 C 12,2 C 0,0 km/h (0 Bft)
06.10.2013 21:05 12,0 C 94 % 1025,2 hPa 0,0 l/m 0,6 km/h (0 Bft) N-NW 337 11,1 C 12,2 C 0,0 km/h (0 Bft)
06.10.2013 21:10 11,9 C 94 % 1025,2 hPa 0,0 l/m 1,3 km/h (1 Bft) N-NW 337 11,0 C 12,1 C 2,3 km/h (1 Bft)
06.10.2013 21:15 11,9 C 94 % 1025,2 hPa 0,0 l/m 0,8 km/h (0 Bft) N-NO 22 11,0 C 12,1 C 0,0 km/h (0 Bft)
06.10.2013 21:20 11,9 C 94 % 1025,2 hPa 0,0 l/m 0,5 km/h (0 Bft) N-NW 337 11,0 C 12,0 C 1,9 km/h (1 Bft)
06.10.2013 21:25 11,9 C 94 % 1025,3 hPa 0,0 l/m 0,3 km/h (0 Bft) N-NW 337 11,0 C 12,0 C 0,0 km/h (0 Bft)
06.10.2013 21:30 11,9 C 94 % 1025,3 hPa 0,0 l/m 0,2 km/h (0 Bft) N 360 11,0 C 12,0 C 0,0 km/h (0 Bft)
06.10.2013 21:35 11,9 C 94 % 1025,3 hPa 0,0 l/m 0,0 km/h (0 Bft) W-NW 292 11,0 C 12,0 C 0,0 km/h (0 Bft)
06.10.2013 21:40 11,9 C 94 % 1025,3 hPa 0,0 l/m 0,0 km/h (0 Bft) NW 315 11,0 C 12,0 C 0,0 km/h (0 Bft)
06.10.2013 21:45 11,8 C 94 % 1025,2 hPa 0,0 l/m 0,2 km/h (0 Bft) N-NW 337 10,9 C 12,0 C 1,8 km/h (1 Bft)
06.10.2013 21:50 11,8 C 94 % 1025,2 hPa 0,0 l/m 0,3 km/h (0 Bft) N-NO 22 10,9 C 12,0 C 0,0 km/h (0 Bft)
06.10.2013 21:55 11,8 C 94 % 1025,2 hPa 0,0 l/m 0,2 km/h (0 Bft) N-NO 22 10,9 C 12,0 C 0,0 km/h (0 Bft)
06.10.2013 22:00 11,8 C 94 % 1025,2 hPa 0,0 l/m 0,0 km/h (0 Bft) W-NW 292 10,9 C 11,9 C 0,0 km/h (0 Bft)
06.10.2013 22:05 11,8 C 95 % 1025,2 hPa 0,0 l/m 0,0 km/h (0 Bft) W-NW 292 11,0 C 11,9 C 0,0 km/h (0 Bft)
06.10.2013 22:10 11,8 C 95 % 1025,2 hPa 0,0 l/m 0,2 km/h (0 Bft) W-NW 292 11,0 C 11,9 C 0,0 km/h (0 Bft)
06.10.2013 22:15 11,8 C 95 % 1025,2 hPa 0,0 l/m 0,3 km/h (0 Bft) N-NW 337 11,0 C 11,9 C 0,0 km/h (0 Bft)
06.10.2013 22:20 11,7 C 95 % 1025,2 hPa 0,0 l/m 1,1 km/h (1 Bft) W-SW 247 10,9 C 11,9 C 3,2 km/h (1 Bft)
06.10.2013 22:25 11,7 C 95 % 1025,3 hPa 0,0 l/m 1,3 km/h (1 Bft) N-NO 22 10,9 C 11,8 C 0,0 km/h (0 Bft)
06.10.2013 22:30 11,7 C 94 % 1025,3 hPa 0,0 l/m 1,0 km/h (0 Bft) N-NO 22 10,8 C 11,8 C 2,3 km/h (1 Bft)
06.10.2013 22:35 11,6 C 95 % 1025,3 hPa 0,0 l/m 0,5 km/h (0 Bft) N 360 10,8 C 11,7 C 0,0 km/h (0 Bft)
06.10.2013 22:40 11,6 C 95 % 1025,3 hPa 0,0 l/m 0,8 km/h (0 Bft) N-NW 337 10,8 C 11,7 C 0,0 km/h (0 Bft)
06.10.2013 22:45 11,6 C 95 % 1025,3 hPa 0,0 l/m 1,0 km/h (0 Bft) N-NW 337 10,8 C 11,7 C 0,0 km/h (0 Bft)
06.10.2013 22:50 11,5 C 95 % 1025,3 hPa 0,0 l/m 1,0 km/h (0 Bft) N 360 10,7 C 11,6 C 0,0 km/h (0 Bft)
06.10.2013 22:55 11,5 C 95 % 1025,3 hPa 0,0 l/m 0,3 km/h (0 Bft) O 90 10,7 C 11,6 C 0,0 km/h (0 Bft)
06.10.2013 23:00 11,5 C 95 % 1025,3 hPa 0,0 l/m 0,0 km/h (0 Bft) W-NW 292 10,7 C 11,6 C 0,0 km/h (0 Bft)
06.10.2013 23:05 11,5 C 95 % 1025,4 hPa 0,0 l/m 0,0 km/h (0 Bft) W-SW 247 10,7 C 11,5 C 0,0 km/h (0 Bft)
06.10.2013 23:10 11,5 C 95 % 1025,4 hPa 0,0 l/m 0,0 km/h (0 Bft) W-SW 247 10,7 C 11,5 C 0,0 km/h (0 Bft)
06.10.2013 23:15 11,5 C 95 % 1025,4 hPa 0,0 l/m 0,0 km/h (0 Bft) N-NO 22 10,7 C 11,5 C 0,0 km/h (0 Bft)
06.10.2013 23:20 11,5 C 95 % 1025,4 hPa 0,0 l/m 0,2 km/h (0 Bft) N 360 10,7 C 11,5 C 0,0 km/h (0 Bft)
06.10.2013 23:25 11,5 C 95 % 1025,3 hPa 0,0 l/m 0,5 km/h (0 Bft) W-NW 292 10,7 C 11,5 C 0,0 km/h (0 Bft)
06.10.2013 23:30 11,5 C 95 % 1025,3 hPa 0,0 l/m 0,5 km/h (0 Bft) S-SO 157 10,7 C 11,5 C 0,0 km/h (0 Bft)
06.10.2013 23:35 11,5 C 95 % 1025,3 hPa 0,0 l/m 0,2 km/h (0 Bft) O 90 10,7 C 11,5 C 2,1 km/h (1 Bft)
06.10.2013 23:40 11,5 C 95 % 1025,3 hPa 0,0 l/m 0,8 km/h (0 Bft) N 360 10,7 C 11,5 C 3,1 km/h (1 Bft)
06.10.2013 23:45 11,5 C 95 % 1025,4 hPa 0,0 l/m 1,1 km/h (1 Bft) N-NW 337 10,7 C 11,5 C 0,0 km/h (0 Bft)
06.10.2013 23:50 11,5 C 95 % 1025,4 hPa 0,0 l/m 1,0 km/h (0 Bft) W-NW 292 10,7 C 11,5 C 3,9 km/h (1 Bft)
06.10.2013 23:55 11,4 C 95 % 1025,4 hPa 0,0 l/m 1,8 km/h (1 Bft) N 360 10,6 C 11,5 C 4,8 km/h (1 Bft)
_ Min-Zeit 07:20 14:00 01:40 - 23:15 - - 07:20 07:25 23:45
Minimum _ 9,5 C 68 % 1021,0 hPa - 0,0 km/h (0 Bft) - - 8,9 C 9,5 C 0,0 km/h (0 Bft)
_ Max-Zeit 11:35 09:20 23:55 20:00 10:25 - - 10:05 11:35 02:40
Maximum _ 17,4 C 96 % 1025,4 hPa 0,7 l/m 6,4 km/h
S-SO (2 Bft)
- - 14,5 C 19,2 C 11,3 km/h
S (2 Bft)
Durchschnitt _ 12,4 C 89 % 1023,4 hPa #0,7 l/m 1,5 km/h (1 Bft) S - 10,6 C 13,2 C 2,0 km/h (1 Bft)